Medicine Lodge, KS

10:17 AM CST on December 10, 2019 (GMT -0600)
Medicine Lodge

Weather History for KP28 - October, 2019

Change the Weather History Date:

Sunday, October 20, 2019

  Actual Average Record
Temperature  
Mean Temperature 61 °F 57 °F  
Max Temperature 76 °F 70 °F 94 °F (1927)
Min Temperature 45 °F 45 °F 16 °F (1976)
Degree Days  
Heating Degree Days 4 9  
Month to date heating degree days 138 119  
Since 1 July heating degree days 138 153  
Cooling Degree Days 0 1  
Month to date cooling degree days 23 36  
Year to date cooling degree days 1837 1767  
Growing Degree Days 10 (Base 50)    
Moisture  
Dew Point 40 °F    
Average Humidity 58    
Maximum Humidity 93    
Minimum Humidity 23    
Precipitation  
Precipitation 0.00 in 0.10 in 1.95 in (1920)
Month to date precipitation 1.76 1.96  
Year to date precipitation 30.34 24.41  
Snow  
Snow 0.00 in 0.00 in - ()
Month to date snowfall 0.0 0.0  
Since 1 July snowfall 0.0 0.0  
Since 1 September snowfall 0.0 0.0  
Snow Depth 0.00 in    
Sea Level Pressure  
Sea Level Pressure 29.66 in    
Wind  
Wind Speed 13 mph (SSE)    
Max Wind Speed 26 mph    
Max Gust Speed 41 mph    
T = Trace of Precipitation, MM = Missing Value Source: NWS Daily Summary

Daily Weather History Graph

Daily Weather History Graph

Search for Another Location

Airport or City:

Astronomy

Oct. 20, 2019 Rise Set
Actual Time 7:46 AM CDT 6:50 PM CDT
Civil Twilight 7:20 AM CDT 7:17 PM CDT
Nautical Twilight 6:49 AM CDT 7:47 PM CDT
Astronomical Twilight 6:19 AM CDT 8:17 PM CDT
Moon No Moon Rise 2:10 PM CDT (10/20)
Length of Visible Light 11h 56m
Length of Day
11h 04m
Waning Gibbous, 59% of the Moon is Illuminated
Oct 20
Waning Gibbous
Oct 21
Last Quarter
Oct 27
New
Nov 4
First Quarter
Nov 12
Full

Hourly Weather History & Observations

Time (CDT) Temp. Windchill Dew Point Humidity Pressure Visibility Wind Dir Wind Speed Gust Speed Precip Events Conditions
12:56 AM 53.1 °F - 37.0 °F 55% 29.78 in - ESE 5.8 mph - N/A   Unknown
1:56 AM 50.0 °F - 37.9 °F 63% 29.78 in - ESE 4.6 mph - N/A   Unknown
2:56 AM 50.0 °F - 39.0 °F 66% 29.77 in - SE 6.9 mph - N/A   Unknown
4:56 AM 48.0 °F - 41.0 °F 77% 29.74 in - ESE 5.8 mph - N/A   Unknown
6:56 AM 46.0 °F 42.5 °F 42.1 °F 86% 29.73 in - ESE 6.9 mph - N/A   Unknown
7:56 AM 48.0 °F - 46.0 °F 93% 29.71 in - SE 6.9 mph - N/A   Unknown
8:56 AM 53.1 °F - 48.9 °F 86% 29.71 in - SE 10.4 mph 17.3 mph N/A   Unknown
9:56 AM 57.0 °F - 51.1 °F 81% 29.72 in - SSE 15.0 mph 28.8 mph N/A   Unknown
10:56 AM 59.0 °F - 51.1 °F 75% 29.70 in - SSE 13.8 mph 24.2 mph N/A   Unknown
11:56 AM 61.0 °F - 52.0 °F 72% 29.66 in - SSE 16.1 mph 25.3 mph N/A   Unknown
12:56 PM 64.9 °F - 51.1 °F 61% 29.63 in - South 15.0 mph 27.6 mph N/A   Unknown
1:56 PM 73.0 °F - 48.9 °F 42% 29.55 in - South 19.6 mph 32.2 mph N/A   Unknown
2:56 PM 73.9 °F - 48.0 °F 40% 29.53 in - South 13.8 mph 32.2 mph N/A   Unknown
3:56 PM 75.9 °F - 44.1 °F 32% 29.52 in - SSW 15.0 mph 21.9 mph N/A   Unknown
4:56 PM 73.9 °F - 39.9 °F 29% 29.53 in - West 10.4 mph - N/A   Unknown
5:56 PM 66.0 °F - 39.9 °F 38% 29.59 in - NNW 17.3 mph 27.6 mph N/A   Unknown
6:56 PM 63.0 °F - 30.9 °F 30% 29.61 in - NNW 18.4 mph 27.6 mph N/A   Unknown
7:56 PM 63.0 °F - 24.1 °F 23% 29.62 in - North 16.1 mph 34.5 mph N/A   Unknown
8:56 PM 61.0 °F - 26.1 °F 26% 29.63 in - NNW 16.1 mph 26.5 mph N/A   Unknown
9:56 PM 61.0 °F - 23.0 °F 23% 29.62 in - NW 12.7 mph - N/A   Unknown
10:56 PM 57.9 °F - 21.9 °F 25% 29.65 in - WNW 20.7 mph 33.4 mph N/A   Unknown
11:56 PM 57.0 °F - 27.0 °F 32% 29.67 in - NW 21.9 mph 39.1 mph N/A   Unknown